Wetbulb
61.64 61.43 61.16 60.38 59.88 59.65 61.06 61.77 63.04 64.22 64.71 65.16 65.45 66.08 65.75 64.66 64.37 63.59 63.52 62.76 62.38 62.34
58.73 58.48 58.25 58.76 58.85 59.00 59.26 60.94 60.35 60.70 61.05 62.05 62.77 63.23 63.08 62.26 61.99 62.11 62.17 62.23 61.83 60.50
56.58 57.33 57.29 56.67 56.53 57.38 57.46 57.48 58.18 58.25 58.27 58.84 59.47 60.00 60.61 60.92 61.54 61.38 60.70 60.82 60.51 60.37
54.67 53.55 53.69 53.17 53.27 53.91 54.71 54.54 54.61 55.33 55.76 56.41 56.57 56.91 57.12 57.80 59.36 58.00 58.95 60.22 60.62 60.61
49.51 49.61 49.29 49.71 50.29 51.45 51.18 51.59 52.17 52.79 53.17 53.45 53.88 54.68 54.94 54.91 55.74 56.90 56.68 57.29 57.44 57.46
47.21 47.32 46.85 47.27 48.12 49.02 49.12 49.10 49.39 49.76 49.89 49.64 50.95 51.92 51.65 51.63 51.43 51.71 51.98 53.07 52.38 52.28
45.57 45.87 46.05 46.21 46.28 46.63 46.78 45.91 46.34 46.75 46.82 47.01 46.98 49.79 48.55 48.02 48.40 48.45 48.89 49.59 50.12 50.38
45.77 45.41 45.05 44.28 43.78 43.84 43.56 43.06 42.92 42.99 43.20 43.87 44.21 45.91 45.83 44.89 45.92 45.94 46.19 46.69 46.67 47.85
44.46 43.75 42.99 42.78 41.89 40.69 39.98 40.03 39.87 39.73 40.10 40.37 41.63 42.06 42.76 43.13 42.93 43.77 43.50 42.69 43.47 44.46
41.67 40.84 40.46 40.29 39.30 37.64 37.07 37.55 37.10 37.50 38.28 38.64 39.58 40.62 40.95 41.62 41.37 40.81 40.87 41.13 41.17 41.78
38.88 37.92 37.39 37.30 36.26 35.48 35.73 35.68 35.94 36.77 37.81 38.09 39.17 40.32 40.14 40.98 41.08 40.91 41.37 41.68 41.62 41.70
36.59 35.85 35.63 35.04 34.74 35.22 35.29 36.11 36.80 37.73 38.09 38.30 38.93 39.88 39.83 40.57 40.86 40.90 41.80 42.62 43.39 42.77
35.85 35.08 35.13 35.07 35.51 36.40 36.32 36.38 37.84 38.80 39.37 39.40 39.64 40.15 39.72 40.43 40.80 40.05 40.12 41.09 42.75 43.05
35.40 35.04 36.14 35.96 35.70 35.33 35.50 37.64 38.16 38.59 39.78 40.38 41.21 41.09 40.16 40.17 40.70 40.30 40.06 40.64 41.37 42.37
MSLP
1010.97 1011.30 1011.89 1012.71 1012.71 1012.67 1012.68 1012.47 1011.85 1012.00 1011.43 1011.22 1011.54 1011.22 1010.93 1010.97 1011.79 1012.16 1011.78 1012.14 1012.32 1012.45
1010.92 1011.57 1012.70 1012.75 1012.87 1013.09 1013.11 1012.86 1012.62 1012.48 1012.18 1011.76 1011.52 1011.34 1011.24 1011.04 1011.82 1011.73 1011.77 1011.84 1011.97 1012.02
1011.81 1012.21 1012.59 1012.70 1013.63 1013.82 1013.81 1013.29 1013.17 1013.10 1012.64 1012.35 1012.05 1011.78 1011.57 1011.50 1011.49 1011.57 1011.82 1011.84 1011.78 1011.71
1014.07 1013.09 1012.86 1013.34 1013.70 1013.91 1013.81 1013.59 1013.54 1013.53 1013.38 1013.01 1012.78 1012.43 1012.13 1011.95 1011.73 1011.73 1011.84 1011.75 1011.83 1011.67
1014.06 1014.18 1014.18 1014.49 1014.58 1014.61 1014.57 1014.35 1013.91 1013.71 1013.90 1013.76 1013.43 1012.98 1012.62 1012.32 1012.09 1011.90 1011.77 1011.70 1011.62 1011.59
1015.00 1014.97 1015.32 1015.27 1015.08 1015.05 1015.06 1014.93 1014.62 1014.45 1014.20 1014.13 1014.02 1013.71 1013.51 1013.23 1012.95 1012.73 1012.40 1012.18 1012.07 1011.88
1015.54 1015.69 1016.07 1015.94 1015.80 1015.57 1015.72 1015.44 1015.17 1015.09 1014.87 1014.61 1014.33 1014.05 1013.83 1013.65 1013.43 1013.18 1012.86 1012.61 1012.40 1012.10
1016.03 1016.11 1016.13 1015.94 1015.88 1015.73 1015.45 1015.49 1015.17 1014.87 1014.47 1014.34 1014.22 1013.59 1013.50 1013.39 1013.21 1012.93 1012.62 1012.43 1012.27 1011.97
1016.63 1016.73 1016.12 1016.32 1016.38 1016.16 1015.91 1015.73 1015.41 1015.24 1014.85 1014.31 1014.14 1014.15 1013.80 1013.38 1013.06 1012.82 1012.56 1012.19 1011.90 1011.59
1016.78 1016.68 1016.67 1016.43 1016.50 1016.24 1016.12 1015.77 1015.39 1015.21 1014.93 1014.48 1014.09 1013.70 1013.48 1013.30 1012.96 1012.72 1012.29 1011.93 1011.46 1011.00
1017.63 1017.37 1017.08 1017.02 1017.05 1016.96 1017.01 1016.69 1016.35 1015.89 1015.35 1014.85 1014.31 1014.03 1013.68 1013.36 1012.95 1012.47 1011.97 1011.56 1011.11 1010.71
1017.74 1017.67 1017.66 1017.53 1017.56 1017.49 1017.14 1016.54 1016.07 1015.74 1015.16 1014.79 1014.27 1013.88 1013.60 1013.25 1012.70 1012.13 1011.52 1011.06 1010.66 1010.35
1018.22 1017.89 1017.63 1017.49 1017.17 1017.22 1017.00 1016.58 1015.94 1015.26 1014.85 1014.56 1014.01 1013.36 1013.02 1012.72 1012.38 1011.80 1011.30 1010.84 1010.35 1009.99
1018.13 1017.75 1017.55 1017.60 1017.72 1017.38 1016.96 1016.24 1015.82 1015.32 1014.71 1014.27 1013.78 1013.12 1012.72 1012.35 1012.12 1011.60 1011.02 1010.42 1009.81 1009.39
Wind_Speed
10 8 8 7 5 5 4 4 8 7 7 5 4 4 1 2 3 5 4 5 5 3
12 13 8 8 7 4 5 5 6 6 7 8 8 6 3 2 3 3 4 5 4 4
10 9 7 8 7 6 5 7 8 8 7 7 7 7 6 4 3 2 2 2 3 3
2 8 9 8 6 5 5 7 8 8 7 7 7 6 5 5 4 4 4 3 4 3
8 8 9 8 7 7 8 7 8 8 8 9 9 8 6 6 6 6 5 5 4 4
7 9 7 7 7 8 8 8 9 9 9 10 9 8 8 8 8 6 6 5 5 4
7 7 6 5 6 6 5 6 6 6 6 6 7 6 5 7 6 5 5 5 5 6
6 6 6 8 7 6 7 7 8 9 8 7 8 7 8 9 9 8 8 7 7 8
6 6 7 7 7 7 8 8 8 9 9 10 8 12 14 13 9 10 10 11 11 10
8 9 9 9 9 10 10 10 11 11 11 12 11 16 15 16 9 9 10 11 11 10
7 7 8 7 8 8 6 7 8 9 9 9 10 16 16 16 11 9 10 10 11 11
7 6 4 5 5 4 4 6 7 9 10 10 11 14 15 13 10 10 11 11 11 10
5 5 6 7 7 6 7 7 6 8 7 10 10 12 13 12 6 9 7 11 11 14
6 6 6 7 5 7 7 7 8 9 9 10 9 12 15 16 8 7 8 8 9 8
Wind_Direction
73 79 73 67 56 50 20 12 15 358 358 359 326 349 248 182 226 259 236 244 234 236
79 72 66 46 42 41 11 12 18 27 22 18 12 1 5 69 297 271 269 254 242 238
62 79 86 68 42 24 5 18 18 14 18 20 16 16 22 28 29 33 309 286 244 234
64 58 59 61 47 37 31 22 24 14 7 11 10 3 5 356 358 6 340 341 337 322
66 58 58 51 41 30 38 29 31 29 25 13 5 357 0 350 340 326 311 294 279 274
64 66 57 54 45 39 32 25 22 21 19 11 359 3 4 4 357 350 343 347 332 306
67 67 69 63 55 49 36 33 25 13 358 352 343 324 347 339 330 327 322 314 312 310
57 51 41 34 26 18 16 1 353 341 338 330 324 312 337 321 307 302 298 292 289 282
43 33 33 19 9 2 353 348 343 336 331 327 323 325 316 319 309 300 293 290 288 279
27 18 10 4 2 357 347 343 342 337 336 329 322 322 319 320 314 305 295 289 287 286
9 3 360 1 352 337 326 322 315 312 311 310 311 310 308 309 305 294 283 283 285 281
6 359 358 356 329 307 309 332 335 335 325 325 314 310 306 306 309 303 298 293 280 276
359 4 7 354 349 341 340 332 327 315 303 294 292 293 296 304 299 295 288 294 288 274
7 4 10 349 334 332 322 310 312 308 309 305 298 302 305 301 302 289 288 284 285 277